QPF
0.01 0.03 0.08 0.11 0.09 0.05 0.04 0.04 0.05 0.06 0.06 0.05 0.04 0.05 0.04 0.06 0.05 0.03 0.02 0.01 0.02 0.02 0.02 0.03 0.04 0.04 0.04 0.06 0.06 0.04 0.04 0.03 0.05 0.05 0.05 0.07 0.08 0.07 0.07 0.05 0.03 0.02 0.06
0.02 0.03 0.07 0.09 0.06 0.03 0.02 0.03 0.03 0.04 0.05 0.04 0.03 0.04 0.05 0.06 0.04 0.03 0.03 0.02 0.03 0.02 0.02 0.03 0.05 0.04 0.03 0.04 0.03 0.02 0.03 0.03 0.03 0.03 0.04 0.05 0.05 0.05 0.07 0.06 0.03 0.02 0.03
0.02 0.03 0.04 0.08 0.07 0.04 0.02 0.02 0.03 0.03 0.03 0.03 0.03 0.05 0.06 0.04 0.03 0.04 0.03 0.03 0.04 0.03 0.02 0.02 0.03 0.04 0.02 0.02 0.02 0.03 0.05 0.06 0.04 0.02 0.03 0.02 0.02 0.03 0.04 0.05 0.06 0.05 0.05
0.02 0.03 0.02 0.07 0.06 0.04 0.02 0.02 0.03 0.04 0.04 0.04 0.05 0.06 0.05 0.03 0.03 0.04 0.04 0.04 0.04 0.03 0.02 0.02 0.03 0.04 0.03 0.03 0.03 0.04 0.05 0.07 0.05 0.04 0.02 0.00 0.01 0.03 0.04 0.05 0.07 0.08 0.06
0.01 0.02 0.03 0.07 0.07 0.04 0.04 0.03 0.05 0.05 0.04 0.03 0.05 0.05 0.03 0.03 0.03 0.03 0.03 0.04 0.04 0.03 0.02 0.02 0.03 0.04 0.04 0.03 0.03 0.04 0.04 0.07 0.07 0.03 0.01 0.01 0.01 0.03 0.05 0.05 0.05 0.07 0.04
0.00 0.00 0.03 0.06 0.09 0.06 0.06 0.05 0.04 0.06 0.05 0.04 0.03 0.03 0.03 0.05 0.05 0.04 0.03 0.04 0.03 0.03 0.02 0.03 0.03 0.03 0.03 0.02 0.02 0.03 0.04 0.06 0.03 0.01 0.00 0.01 0.01 0.04 0.07 0.06 0.06 0.06 0.04
0.01 0.01 0.02 0.06 0.08 0.09 0.09 0.08 0.06 0.06 0.06 0.06 0.05 0.04 0.04 0.05 0.06 0.05 0.04 0.04 0.04 0.04 0.03 0.04 0.03 0.03 0.02 0.02 0.02 0.02 0.04 0.03 0.01 0.00 0.00 0.02 0.03 0.08 0.10 0.10 0.09 0.06 0.05
0.03 0.01 0.02 0.06 0.09 0.09 0.10 0.09 0.10 0.09 0.08 0.06 0.06 0.05 0.06 0.06 0.05 0.05 0.05 0.05 0.05 0.04 0.04 0.03 0.03 0.03 0.01 0.02 0.02 0.02 0.03 0.02 0.01 0.00 0.01 0.04 0.07 0.08 0.09 0.08 0.08 0.07 0.05
0.02 0.02 0.03 0.04 0.08 0.11 0.12 0.11 0.09 0.10 0.08 0.07 0.08 0.09 0.08 0.06 0.05 0.06 0.05 0.05 0.04 0.03 0.03 0.03 0.03 0.02 0.02 0.01 0.02 0.02 0.03 0.03 0.01 0.02 0.02 0.04 0.05 0.05 0.05 0.06 0.06 0.08 0.05
0.01 0.01 0.01 0.01 0.02 0.04 0.07 0.10 0.09 0.08 0.08 0.07 0.06 0.10 0.08 0.06 0.06 0.06 0.04 0.04 0.03 0.02 0.02 0.02 0.03 0.02 0.01 0.02 0.02 0.02 0.02 0.02 0.02 0.01 0.01 0.02 0.06 0.05 0.04 0.06 0.08 0.09 0.06
0.01 0.02 0.01 0.01 0.01 0.01 0.02 0.06 0.09 0.07 0.08 0.06 0.04 0.06 0.05 0.03 0.04 0.07 0.04 0.04 0.04 0.03 0.03 0.03 0.03 0.01 0.01 0.01 0.01 0.01 0.01 0.00 0.01 0.01 0.01 0.05 0.07 0.06 0.06 0.06 0.07 0.07 0.07
0.02 0.01 0.01 0.01 0.01 0.01 0.02 0.05 0.07 0.07 0.05 0.04 0.02 0.01 0.01 0.02 0.04 0.06 0.05 0.05 0.05 0.04 0.03 0.03 0.02 0.01 0.01 0.00 0.01 0.01 0.00 0.00 0.00 0.01 0.03 0.07 0.11 0.11 0.08 0.06 0.09 0.09 0.07
0.02 0.01 0.01 0.02 0.02 0.02 0.02 0.03 0.05 0.07 0.04 0.02 0.01 0.01 0.01 0.02 0.04 0.03 0.03 0.04 0.03 0.02 0.02 0.01 0.01 0.01 0.00 0.00 0.01 0.01 0.01 0.00 0.00 0.01 0.05 0.10 0.11 0.11 0.10 0.08 0.10 0.16 0.12
0.02 0.02 0.01 0.02 0.02 0.02 0.03 0.04 0.05 0.06 0.04 0.02 0.01 0.02 0.02 0.02 0.02 0.01 0.02 0.02 0.01 0.01 0.01 0.01 0.01 0.00 0.00 0.00 0.00 0.01 0.01 0.00 0.01 0.01 0.04 0.11 0.14 0.15 0.16 0.16 0.13 0.16 0.15
0.02 0.02 0.01 0.02 0.02 0.03 0.04 0.09 0.10 0.09 0.05 0.03 0.01 0.01 0.01 0.01 0.01 0.01 0.01 0.01 0.01 0.00 0.00 0.00 0.00 0.00 0.00 0.01 0.01 0.01 0.01 0.01 0.02 0.02 0.04 0.08 0.15 0.18 0.18 0.16 0.13 0.13 0.12
0.06 0.04 0.03 0.03 0.03 0.03 0.04 0.06 0.09 0.05 0.04 0.03 0.01 0.01 0.01 0.01 0.01 0.01 0.01 0.01 0.01 0.01 0.01 0.01 0.00 0.00 0.01 0.01 0.02 0.02 0.01 0.01 0.02 0.03 0.02 0.04 0.08 0.11 0.14 0.13 0.11 0.12 0.12
0.05 0.02 0.02 0.02 0.02 0.02 0.03 0.04 0.05 0.04 0.03 0.02 0.01 0.01 0.01 0.01 0.01 0.01 0.01 0.01 0.01 0.01 0.01 0.01 0.01 0.01 0.02 0.02 0.02 0.02 0.02 0.02 0.02 0.02 0.02 0.01 0.02 0.05 0.12 0.15 0.15 0.13 0.12
0.00 0.01 0.01 0.01 0.01 0.01 0.02 0.04 0.06 0.05 0.05 0.04 0.03 0.02 0.01 0.01 0.02 0.02 0.02 0.02 0.03 0.02 0.02 0.01 0.01 0.01 0.02 0.02 0.02 0.02 0.03 0.04 0.02 0.02 0.02 0.01 0.01 0.02 0.04 0.08 0.08 0.08 0.08
0.01 0.01 0.01 0.01 0.00 0.00 0.01 0.01 0.03 0.04 0.04 0.03 0.03 0.02 0.02 0.02 0.02 0.03 0.03 0.03 0.04 0.03 0.02 0.02 0.02 0.01 0.01 0.01 0.02 0.02 0.03 0.03 0.03 0.02 0.02 0.01 0.01 0.01 0.01 0.01 0.02 0.02 0.04
0.01 0.01 0.01 0.01 0.01 0.00 0.00 0.02 0.03 0.05 0.04 0.02 0.01 0.01 0.02 0.01 0.01 0.02 0.03 0.04 0.04 0.03 0.02 0.02 0.02 0.02 0.01 0.01 0.01 0.02 0.03 0.03 0.03 0.03 0.02 0.01 0.01 0.01 0.01 0.00 0.00 0.01 0.01
0.01 0.01 0.01 0.01 0.01 0.00 0.01 0.02 0.06 0.07 0.07 0.04 0.02 0.02 0.01 0.01 0.01 0.01 0.02 0.04 0.04 0.02 0.02 0.02 0.02 0.02 0.01 0.02 0.02 0.03 0.02 0.03 0.03 0.02 0.02 0.01 0.01 0.01 0.01 0.01 0.00 0.00 0.00
0.01 0.00 0.00 0.01 0.01 0.01 0.01 0.02 0.05 0.12 0.13 0.11 0.06 0.03 0.01 0.01 0.01 0.01 0.01 0.02 0.03 0.02 0.02 0.01 0.01 0.01 0.01 0.02 0.02 0.02 0.02 0.03 0.02 0.01 0.02 0.02 0.02 0.02 0.02 0.02 0.01 0.01 0.00
0.01 0.01 0.01 0.01 0.01 0.01 0.01 0.02 0.04 0.10 0.14 0.11 0.06 0.03 0.02 0.01 0.02 0.02 0.01 0.02 0.03 0.02 0.02 0.02 0.02 0.02 0.01 0.01 0.01 0.02 0.02 0.02 0.03 0.02 0.02 0.02 0.02 0.02 0.01 0.01 0.01 0.01 0.01
0.01 0.01 0.01 0.02 0.01 0.01 0.01 0.02 0.03 0.05 0.07 0.06 0.03 0.02 0.02 0.02 0.03 0.03 0.03 0.03 0.03 0.02 0.02 0.03 0.03 0.02 0.02 0.02 0.02 0.02 0.02 0.02 0.01 0.02 0.02 0.02 0.02 0.02 0.02 0.02 0.01 0.01 0.01
0.02 0.02 0.02 0.03 0.02 0.02 0.02 0.02 0.03 0.03 0.03 0.03 0.02 0.02 0.02 0.01 0.02 0.03 0.03 0.03 0.02 0.02 0.02 0.02 0.02 0.02 0.03 0.03 0.03 0.02 0.02 0.02 0.02 0.01 0.01 0.01 0.01 0.01 0.02 0.01 0.01 0.01 0.01
0.03 0.03 0.03 0.03 0.02 0.02 0.02 0.02 0.03 0.03 0.03 0.03 0.02 0.02 0.01 0.01 0.01 0.02 0.02 0.02 0.02 0.02 0.02 0.01 0.01 0.02 0.02 0.02 0.03 0.02 0.02 0.02 0.02 0.01 0.01 0.01 0.01 0.01 0.01 0.01 0.01 0.01 0.01
MSLP
1013.64 1012.96 1012.46 1012.16 1012.05 1012.07 1012.14 1012.17 1012.12 1011.97 1011.76 1011.53 1011.35 1011.28 1011.34 1011.52 1011.78 1012.07 1012.33 1012.52 1012.64 1012.70 1012.74 1012.80 1012.92 1013.09 1013.32 1013.55 1013.76 1013.90 1013.96 1013.96 1013.89 1013.82 1013.76 1013.74 1013.77 1013.83 1013.91 1013.97 1013.99 1013.97 1013.90
1013.70 1013.05 1012.55 1012.27 1012.17 1012.19 1012.26 1012.29 1012.25 1012.12 1011.92 1011.73 1011.60 1011.57 1011.68 1011.89 1012.18 1012.48 1012.74 1012.93 1013.04 1013.10 1013.13 1013.19 1013.29 1013.45 1013.65 1013.86 1014.04 1014.15 1014.20 1014.17 1014.11 1014.03 1013.98 1013.98 1014.02 1014.09 1014.17 1014.24 1014.27 1014.27 1014.23
1013.70 1013.07 1012.60 1012.33 1012.24 1012.28 1012.35 1012.40 1012.39 1012.29 1012.14 1011.99 1011.91 1011.92 1012.05 1012.28 1012.57 1012.86 1013.11 1013.28 1013.38 1013.42 1013.46 1013.51 1013.61 1013.76 1013.94 1014.12 1014.28 1014.38 1014.41 1014.39 1014.34 1014.28 1014.26 1014.27 1014.32 1014.40 1014.49 1014.56 1014.60 1014.61 1014.60
1013.64 1013.06 1012.62 1012.38 1012.31 1012.36 1012.45 1012.53 1012.54 1012.49 1012.39 1012.29 1012.24 1012.28 1012.42 1012.64 1012.91 1013.17 1013.38 1013.53 1013.62 1013.66 1013.70 1013.76 1013.87 1014.02 1014.20 1014.37 1014.52 1014.61 1014.65 1014.64 1014.61 1014.59 1014.59 1014.63 1014.69 1014.78 1014.86 1014.93 1014.97 1015.00 1015.01
1013.55 1013.03 1012.65 1012.44 1012.39 1012.46 1012.57 1012.67 1012.72 1012.70 1012.64 1012.59 1012.57 1012.62 1012.75 1012.95 1013.17 1013.39 1013.57 1013.69 1013.77 1013.83 1013.89 1013.98 1014.11 1014.28 1014.46 1014.64 1014.79 1014.88 1014.93 1014.95 1014.95 1014.95 1014.98 1015.04 1015.12 1015.21 1015.29 1015.35 1015.38 1015.41 1015.43
1013.49 1013.04 1012.71 1012.54 1012.52 1012.59 1012.72 1012.83 1012.90 1012.92 1012.90 1012.87 1012.87 1012.93 1013.04 1013.20 1013.38 1013.56 1013.70 1013.82 1013.90 1013.98 1014.08 1014.21 1014.38 1014.58 1014.79 1014.97 1015.12 1015.22 1015.28 1015.31 1015.33 1015.37 1015.42 1015.49 1015.58 1015.66 1015.73 1015.78 1015.80 1015.82 1015.84
1013.50 1013.11 1012.84 1012.70 1012.69 1012.77 1012.90 1013.02 1013.10 1013.14 1013.14 1013.14 1013.16 1013.21 1013.31 1013.44 1013.58 1013.72 1013.84 1013.95 1014.06 1014.18 1014.33 1014.52 1014.74 1014.97 1015.20 1015.40 1015.54 1015.64 1015.70 1015.73 1015.76 1015.80 1015.87 1015.95 1016.04 1016.11 1016.16 1016.20 1016.21 1016.22 1016.24
1013.59 1013.26 1013.04 1012.93 1012.93 1013.00 1013.12 1013.23 1013.31 1013.36 1013.39 1013.41 1013.44 1013.50 1013.59 1013.70 1013.82 1013.94 1014.05 1014.17 1014.31 1014.47 1014.68 1014.92 1015.19 1015.46 1015.71 1015.91 1016.05 1016.13 1016.17 1016.19 1016.20 1016.24 1016.30 1016.38 1016.45 1016.52 1016.57 1016.59 1016.60 1016.61 1016.63
1013.77 1013.50 1013.31 1013.22 1013.22 1013.28 1013.37 1013.47 1013.55 1013.60 1013.65 1013.70 1013.76 1013.83 1013.93 1014.03 1014.14 1014.25 1014.36 1014.50 1014.66 1014.87 1015.12 1015.42 1015.73 1016.03 1016.29 1016.49 1016.61 1016.66 1016.67 1016.66 1016.65 1016.66 1016.70 1016.76 1016.83 1016.89 1016.94 1016.96 1016.97 1016.99 1017.03
1014.02 1013.80 1013.64 1013.57 1013.56 1013.61 1013.68 1013.75 1013.83 1013.89 1013.96 1014.03 1014.12 1014.22 1014.33 1014.44 1014.55 1014.66 1014.78 1014.93 1015.11 1015.36 1015.65 1015.98 1016.32 1016.64 1016.90 1017.09 1017.19 1017.22 1017.19 1017.14 1017.09 1017.07 1017.08 1017.12 1017.18 1017.24 1017.29 1017.33 1017.36 1017.39 1017.44
1014.30 1014.12 1014.00 1013.95 1013.94 1013.97 1014.02 1014.08 1014.15 1014.23 1014.32 1014.42 1014.54 1014.67 1014.80 1014.92 1015.04 1015.15 1015.27 1015.42 1015.63 1015.88 1016.20 1016.55 1016.91 1017.24 1017.51 1017.69 1017.77 1017.77 1017.71 1017.63 1017.54 1017.49 1017.47 1017.49 1017.54 1017.60 1017.66 1017.72 1017.78 1017.84 1017.91
1014.59 1014.45 1014.37 1014.33 1014.33 1014.36 1014.40 1014.45 1014.52 1014.60 1014.71 1014.84 1014.98 1015.14 1015.29 1015.42 1015.55 1015.66 1015.79 1015.94 1016.15 1016.41 1016.73 1017.09 1017.46 1017.80 1018.08 1018.26 1018.34 1018.33 1018.26 1018.15 1018.05 1017.97 1017.93 1017.93 1017.97 1018.03 1018.11 1018.18 1018.26 1018.35 1018.45
1014.85 1014.76 1014.72 1014.71 1014.72 1014.75 1014.79 1014.84 1014.91 1015.00 1015.12 1015.26 1015.42 1015.59 1015.76 1015.90 1016.04 1016.16 1016.28 1016.44 1016.65 1016.91 1017.23 1017.60 1017.97 1018.32 1018.61 1018.81 1018.91 1018.92 1018.86 1018.76 1018.65 1018.56 1018.50 1018.49 1018.52 1018.58 1018.65 1018.74 1018.84 1018.94 1019.05
1015.07 1015.03 1015.03 1015.05 1015.08 1015.13 1015.18 1015.24 1015.31 1015.40 1015.52 1015.66 1015.82 1015.99 1016.16 1016.31 1016.45 1016.59 1016.73 1016.89 1017.10 1017.37 1017.70 1018.06 1018.45 1018.81 1019.12 1019.36 1019.50 1019.56 1019.53 1019.47 1019.38 1019.29 1019.24 1019.22 1019.23 1019.28 1019.34 1019.42 1019.51 1019.60 1019.71
1015.24 1015.25 1015.28 1015.34 1015.40 1015.47 1015.54 1015.61 1015.68 1015.76 1015.87 1016.00 1016.14 1016.30 1016.47 1016.63 1016.78 1016.94 1017.10 1017.29 1017.53 1017.81 1018.15 1018.52 1018.92 1019.31 1019.66 1019.95 1020.15 1020.27 1020.31 1020.30 1020.26 1020.20 1020.15 1020.13 1020.12 1020.14 1020.17 1020.22 1020.28 1020.35 1020.43
1015.38 1015.42 1015.48 1015.57 1015.66 1015.75 1015.84 1015.92 1016.00 1016.07 1016.16 1016.26 1016.38 1016.52 1016.67 1016.84 1017.02 1017.21 1017.42 1017.66 1017.93 1018.25 1018.61 1019.01 1019.43 1019.85 1020.24 1020.58 1020.86 1021.06 1021.19 1021.25 1021.27 1021.26 1021.23 1021.20 1021.17 1021.16 1021.14 1021.14 1021.14 1021.16 1021.19
1015.49 1015.55 1015.63 1015.73 1015.84 1015.96 1016.07 1016.17 1016.25 1016.32 1016.38 1016.45 1016.54 1016.65 1016.80 1016.97 1017.19 1017.43 1017.70 1018.00 1018.34 1018.71 1019.11 1019.54 1019.99 1020.44 1020.87 1021.27 1021.61 1021.89 1022.11 1022.26 1022.36 1022.40 1022.41 1022.39 1022.35 1022.29 1022.22 1022.15 1022.09 1022.03 1022.00
1015.59 1015.63 1015.71 1015.81 1015.94 1016.08 1016.22 1016.34 1016.43 1016.50 1016.54 1016.59 1016.64 1016.73 1016.87 1017.06 1017.31 1017.61 1017.96 1018.34 1018.76 1019.19 1019.64 1020.10 1020.58 1021.05 1021.51 1021.95 1022.35 1022.72 1023.02 1023.26 1023.44 1023.56 1023.61 1023.61 1023.57 1023.48 1023.36 1023.23 1023.09 1022.96 1022.85
1015.65 1015.68 1015.73 1015.83 1015.96 1016.12 1016.29 1016.44 1016.55 1016.63 1016.66 1016.68 1016.72 1016.78 1016.92 1017.12 1017.41 1017.77 1018.20 1018.66 1019.15 1019.65 1020.15 1020.65 1021.14 1021.62 1022.10 1022.57 1023.02 1023.44 1023.83 1024.16 1024.43 1024.63 1024.75 1024.79 1024.76 1024.67 1024.52 1024.34 1024.14 1023.94 1023.76
1015.69 1015.68 1015.70 1015.78 1015.91 1016.09 1016.28 1016.47 1016.61 1016.71 1016.75 1016.76 1016.78 1016.83 1016.96 1017.18 1017.49 1017.91 1018.40 1018.94 1019.50 1020.06 1020.60 1021.12 1021.61 1022.10 1022.58 1023.06 1023.54 1024.01 1024.46 1024.88 1025.24 1025.52 1025.72 1025.83 1025.85 1025.78 1025.64 1025.44 1025.20 1024.96 1024.72
1015.70 1015.64 1015.62 1015.67 1015.80 1015.99 1016.22 1016.44 1016.62 1016.75 1016.81 1016.83 1016.84 1016.89 1017.00 1017.22 1017.56 1018.01 1018.55 1019.14 1019.75 1020.35 1020.92 1021.45 1021.94 1022.42 1022.89 1023.36 1023.85 1024.36 1024.86 1025.35 1025.80 1026.18 1026.47 1026.67 1026.76 1026.75 1026.65 1026.47 1026.23 1025.96 1025.69
1015.65 1015.57 1015.52 1015.54 1015.66 1015.86 1016.11 1016.37 1016.60 1016.76 1016.85 1016.88 1016.90 1016.93 1017.04 1017.25 1017.59 1018.05 1018.61 1019.23 1019.87 1020.50 1021.08 1021.61 1022.10 1022.55 1023.00 1023.46 1023.95 1024.47 1025.01 1025.56 1026.08 1026.56 1026.96 1027.26 1027.45 1027.53 1027.50 1027.37 1027.17 1026.91 1026.63
1015.58 1015.48 1015.40 1015.41 1015.51 1015.71 1015.97 1016.26 1016.53 1016.73 1016.85 1016.91 1016.93 1016.96 1017.06 1017.26 1017.58 1018.04 1018.59 1019.22 1019.87 1020.50 1021.08 1021.60 1022.07 1022.51 1022.93 1023.37 1023.84 1024.36 1024.92 1025.51 1026.10 1026.66 1027.16 1027.57 1027.88 1028.07 1028.14 1028.10 1027.96 1027.75 1027.49
1015.48 1015.39 1015.31 1015.30 1015.38 1015.57 1015.84 1016.14 1016.43 1016.66 1016.81 1016.89 1016.92 1016.96 1017.05 1017.23 1017.54 1017.97 1018.51 1019.12 1019.76 1020.38 1020.95 1021.47 1021.92 1022.34 1022.74 1023.15 1023.61 1024.11 1024.67 1025.28 1025.91 1026.53 1027.12 1027.63 1028.06 1028.36 1028.55 1028.62 1028.57 1028.42 1028.21
1015.38 1015.33 1015.26 1015.23 1015.30 1015.47 1015.73 1016.02 1016.32 1016.56 1016.73 1016.83 1016.88 1016.92 1017.01 1017.18 1017.47 1017.88 1018.39 1018.98 1019.60 1020.21 1020.78 1021.28 1021.73 1022.12 1022.50 1022.89 1023.32 1023.80 1024.34 1024.94 1025.58 1026.24 1026.89 1027.49 1028.01 1028.43 1028.74 1028.91 1028.97 1028.91 1028.76
1015.30 1015.30 1015.26 1015.24 1015.28 1015.43 1015.65 1015.92 1016.20 1016.44 1016.63 1016.74 1016.81 1016.87 1016.97 1017.14 1017.42 1017.80 1018.30 1018.87 1019.47 1020.06 1020.62 1021.12 1021.56 1021.95 1022.31 1022.67 1023.06 1023.50 1024.01 1024.58 1025.21 1025.88 1026.55 1027.20 1027.80 1028.32 1028.73 1029.02 1029.17 1029.21 1029.13
Thickness
5768 5771 5771 5771 5771 5770 5770 5769 5769 5768 5768 5768 5767 5767 5767 5767 5767 5767 5767 5767 5766 5766 5766 5765 5765 5765 5764 5763 5763 5762 5762 5761 5761 5760 5760 5760 5760 5759 5759 5759 5758 5758 5758
5770 5771 5771 5770 5769 5769 5768 5768 5767 5767 5766 5766 5765 5765 5765 5765 5764 5764 5764 5764 5764 5763 5763 5763 5762 5762 5761 5760 5760 5759 5759 5759 5758 5757 5757 5757 5757 5757 5756 5756 5756 5756 5756
5770 5770 5769 5769 5768 5767 5767 5766 5765 5765 5765 5764 5763 5763 5763 5762 5762 5762 5762 5761 5761 5761 5760 5760 5759 5759 5758 5758 5757 5757 5756 5756 5755 5754 5753 5753 5753 5754 5754 5754 5753 5753 5753
5769 5768 5768 5767 5766 5765 5765 5764 5764 5763 5762 5762 5761 5761 5760 5760 5760 5759 5759 5759 5758 5758 5757 5757 5756 5756 5755 5755 5755 5754 5754 5753 5752 5751 5750 5750 5751 5751 5751 5751 5751 5750 5750
5767 5766 5766 5765 5764 5763 5762 5762 5762 5761 5760 5760 5759 5758 5757 5757 5757 5757 5756 5756 5755 5754 5754 5754 5753 5753 5752 5752 5752 5751 5750 5750 5749 5748 5748 5747 5748 5748 5748 5748 5747 5747 5747
5765 5764 5763 5763 5762 5761 5760 5759 5759 5759 5758 5757 5756 5756 5755 5755 5754 5754 5753 5752 5752 5751 5751 5750 5750 5750 5749 5749 5749 5748 5747 5746 5746 5745 5744 5744 5745 5745 5745 5745 5744 5744 5744
5762 5762 5761 5761 5760 5759 5758 5757 5757 5756 5755 5755 5754 5753 5752 5752 5752 5751 5750 5749 5748 5748 5747 5747 5747 5746 5746 5745 5745 5745 5744 5743 5742 5742 5741 5741 5742 5742 5742 5742 5741 5740 5740
5760 5759 5758 5758 5757 5756 5755 5755 5754 5753 5753 5752 5751 5750 5750 5749 5748 5748 5747 5746 5745 5744 5744 5743 5743 5743 5742 5742 5741 5741 5741 5740 5739 5738 5738 5738 5739 5739 5739 5739 5738 5737 5737
5757 5756 5755 5754 5754 5753 5753 5752 5751 5751 5750 5750 5749 5747 5747 5746 5745 5744 5744 5743 5742 5741 5741 5740 5739 5739 5738 5738 5738 5737 5737 5736 5735 5735 5735 5735 5735 5735 5735 5735 5734 5734 5733
5753 5752 5751 5751 5750 5750 5749 5749 5749 5748 5748 5747 5746 5745 5744 5743 5742 5741 5741 5740 5739 5738 5738 5737 5736 5735 5734 5734 5734 5734 5733 5732 5732 5731 5731 5732 5732 5732 5732 5731 5730 5730 5729
5748 5748 5748 5748 5747 5747 5746 5746 5745 5745 5744 5744 5743 5742 5740 5739 5738 5738 5737 5737 5736 5735 5734 5733 5732 5731 5731 5730 5730 5730 5729 5728 5728 5728 5728 5728 5728 5728 5728 5727 5727 5726 5725
5743 5745 5745 5745 5744 5743 5743 5742 5742 5741 5740 5740 5739 5738 5737 5736 5735 5734 5734 5733 5732 5731 5730 5729 5728 5727 5727 5726 5725 5725 5725 5724 5724 5724 5724 5725 5725 5725 5724 5723 5723 5722 5721
5742 5742 5743 5742 5741 5740 5739 5739 5738 5737 5737 5736 5735 5734 5734 5733 5731 5731 5730 5729 5728 5727 5726 5724 5723 5723 5722 5721 5721 5720 5720 5720 5720 5720 5721 5722 5722 5721 5721 5720 5719 5718 5717
5739 5739 5740 5740 5739 5738 5737 5736 5735 5734 5733 5732 5732 5731 5730 5729 5728 5727 5726 5725 5724 5723 5721 5720 5719 5718 5718 5717 5716 5716 5716 5715 5715 5715 5716 5717 5717 5717 5717 5716 5716 5715 5713
5737 5737 5738 5738 5736 5735 5734 5733 5732 5730 5729 5729 5728 5727 5726 5725 5724 5723 5722 5721 5720 5719 5718 5716 5715 5714 5713 5713 5712 5712 5711 5711 5710 5710 5711 5711 5712 5712 5712 5712 5711 5711 5710
5734 5735 5735 5735 5734 5733 5731 5730 5729 5727 5726 5725 5724 5724 5723 5722 5721 5720 5719 5717 5716 5715 5714 5713 5711 5710 5709 5708 5708 5707 5706 5706 5705 5705 5705 5706 5707 5707 5707 5707 5707 5706 5706
5732 5732 5732 5732 5731 5730 5728 5727 5726 5724 5723 5722 5721 5720 5719 5719 5718 5717 5715 5714 5712 5711 5710 5709 5707 5706 5705 5704 5702 5702 5701 5701 5700 5700 5700 5700 5700 5701 5701 5701 5701 5701 5701
5730 5729 5729 5730 5728 5726 5725 5724 5722 5721 5719 5718 5717 5716 5715 5715 5714 5713 5711 5710 5709 5707 5706 5705 5703 5700 5699 5697 5697 5696 5696 5696 5695 5695 5695 5694 5694 5694 5695 5695 5696 5696 5696
5727 5726 5725 5725 5723 5722 5721 5719 5718 5716 5715 5714 5713 5713 5712 5711 5710 5709 5707 5706 5705 5704 5702 5701 5698 5696 5693 5692 5692 5691 5690 5690 5690 5690 5689 5688 5688 5688 5688 5689 5689 5690 5690
5724 5723 5721 5720 5719 5717 5715 5714 5712 5711 5710 5710 5709 5708 5708 5707 5706 5705 5703 5702 5701 5699 5697 5695 5692 5691 5689 5688 5688 5685 5684 5684 5684 5683 5683 5683 5682 5682 5682 5683 5683 5683 5684
5719 5718 5716 5714 5713 5712 5710 5707 5706 5704 5704 5704 5704 5704 5703 5703 5702 5701 5700 5698 5697 5695 5693 5691 5688 5685 5683 5683 5681 5678 5678 5678 5678 5677 5677 5677 5677 5676 5677 5677 5677 5677 5678
5714 5712 5711 5709 5708 5707 5706 5704 5702 5701 5699 5699 5699 5699 5699 5698 5697 5697 5696 5694 5692 5690 5688 5687 5685 5681 5679 5679 5676 5672 5669 5669 5670 5672 5671 5672 5671 5671 5671 5671 5671 5671 5671
5709 5707 5707 5705 5704 5703 5701 5699 5697 5695 5694 5693 5693 5693 5694 5694 5693 5693 5692 5690 5689 5687 5684 5683 5681 5679 5675 5674 5674 5671 5665 5662 5662 5664 5665 5665 5665 5665 5665 5666 5666 5666 5666
5706 5705 5703 5701 5699 5698 5697 5695 5692 5689 5687 5687 5688 5688 5689 5689 5689 5689 5688 5687 5685 5683 5681 5679 5678 5676 5674 5671 5670 5669 5667 5665 5660 5657 5658 5659 5660 5660 5660 5660 5660 5661 5661
5703 5701 5699 5697 5695 5694 5693 5692 5689 5686 5685 5684 5684 5684 5684 5684 5684 5684 5683 5682 5681 5679 5678 5676 5674 5673 5672 5669 5667 5665 5663 5661 5659 5655 5652 5652 5653 5654 5655 5655 5655 5656 5656
5699 5697 5695 5692 5691 5690 5689 5688 5686 5683 5681 5679 5679 5679 5679 5679 5679 5679 5679 5678 5676 5675 5674 5672 5671 5670 5668 5667 5665 5664 5661 5659 5656 5653 5649 5648 5647 5648 5649 5650 5651 5651 5651